Weather History for Wise, VA

Change the Weather History Date:

Tuesday, November 15, 2011

  Actual Average Record
Temperature  
Mean Temperature 58 °F -  
Max Temperature 64 °F 51 °F 69 °F (2005)
Min Temperature 53 °F 34 °F 17 °F (1996)
Degree Days  
Heating Degree Days 6    
Growing Degree Days 8 (Base 50)    
Moisture  
Dew Point 54 °F    
Average Humidity 91    
Maximum Humidity 100    
Minimum Humidity 73    
Precipitation  
Precipitation 0.00 in - - ()
Sea Level Pressure  
Sea Level Pressure 29.98 in    
Wind  
Wind Speed 12 mph (NNW)    
Max Wind Speed 24 mph    
Max Gust Speed 37 mph    
Visibility 5 miles    
Events      
Averages and records for this station are not official NWS values.
T = Trace of Precipitation, MM = Missing Value Source: NWS Daily Summary

Daily Weather History Graph

Daily Weather History Graph

Search for Another Location

Airport:

Trip Planner

Search our weather history database for the weather conditions in past years. The results will help you decide how hot, cold, wet, or windy it might be!

Date:

Astronomy

Nov. 15, 2011 Rise Set
Actual Time 7:08 AM EST 5:20 PM EST
Civil Twilight 6:40 AM EST 5:48 PM EST
Nautical Twilight 6:09 AM EST 6:19 PM EST
Astronomical Twilight 5:38 AM EST 6:50 PM EST
Moon 9:28 PM EST (11/15) 11:06 AM EST (11/15)
Length of Visible Light 11h 07m
Length of Day
10h 12m
Waning Gibbous, 79% of the Moon is Illuminated
Nov 15
Waning Gibbous
Nov 18
Last Quarter
Nov 25
New
Dec 2
First Quarter
Dec 10
Full

Hourly Weather History & Observations

Time (EST) Temp. Dew Point Humidity Pressure Visibility Wind Dir Wind Speed Gust Speed Precip Events Conditions
12:15 AM 64.4 °F 55.4 °F 73% 29.97 in 10.0 mi SW 20.7 mph 34.5 mph N/A   Unknown
12:35 AM 64.4 °F 55.4 °F 73% 29.97 in 10.0 mi SW 23.0 mph 34.5 mph N/A   Unknown
12:55 AM 62.6 °F 55.4 °F 77% 29.97 in 10.0 mi WSW 18.4 mph 26.5 mph N/A   Unknown
1:15 AM 64.4 °F 55.4 °F 73% 29.96 in 10.0 mi SW 18.4 mph 36.8 mph N/A   Unknown
1:35 AM 62.6 °F 55.4 °F 77% 29.96 in 10.0 mi SW 23.0 mph 31.1 mph N/A   Unknown
1:55 AM 62.6 °F 55.4 °F 77% 29.95 in 10.0 mi SW 24.2 mph 29.9 mph N/A   Unknown
2:15 AM 62.6 °F 55.4 °F 77% 29.96 in 10.0 mi SW 16.1 mph 23.0 mph N/A   Unknown
2:35 AM 62.6 °F 55.4 °F 77% 29.95 in 10.0 mi SW 16.1 mph 25.3 mph N/A   Unknown
2:55 AM 62.6 °F 55.4 °F 77% 29.95 in 10.0 mi SW 20.7 mph 27.6 mph N/A   Unknown
3:15 AM 62.6 °F 57.2 °F 82% 29.96 in 10.0 mi SW 15.0 mph 26.5 mph N/A   Unknown
3:35 AM 62.6 °F 57.2 °F 82% 29.95 in 10.0 mi SW 15.0 mph - N/A   Unknown
3:55 AM 62.6 °F 57.2 °F 82% 29.94 in 10.0 mi SW 15.0 mph 20.7 mph N/A   Unknown
4:15 AM 62.6 °F 57.2 °F 82% 29.94 in 10.0 mi SW 15.0 mph 20.7 mph N/A   Unknown
4:35 AM 60.8 °F 59.0 °F 94% 29.94 in 7.0 mi SW 13.8 mph - N/A   Unknown
4:55 AM 62.6 °F 59.0 °F 88% 29.94 in 10.0 mi SW 12.7 mph - N/A   Unknown
5:15 AM 62.6 °F 59.0 °F 88% 29.95 in 10.0 mi SW 16.1 mph 25.3 mph N/A   Unknown
5:35 AM 60.8 °F 59.0 °F 94% 29.95 in 7.0 mi SW 13.8 mph - N/A   Unknown
5:55 AM 60.8 °F 59.0 °F 94% 29.94 in 3.0 mi SW 13.8 mph 19.6 mph N/A   Unknown
6:15 AM 60.8 °F 57.2 °F 88% 29.94 in 10.0 mi SW 13.8 mph 18.4 mph N/A   Unknown
6:35 AM 60.8 °F 59.0 °F 94% 29.94 in 3.0 mi SW 13.8 mph 17.3 mph N/A   Unknown
6:55 AM 60.8 °F 59.0 °F 94% 29.95 in 3.0 mi SW 11.5 mph 17.3 mph N/A   Unknown
7:55 AM 57.2 °F 55.4 °F 94% 29.97 in 2.0 mi North 3.5 mph - N/A   Unknown
8:15 AM 55.4 °F 53.6 °F 94% 29.99 in 10.0 mi NNW 8.1 mph - N/A   Unknown
8:35 AM 55.4 °F 53.6 °F 94% 30.00 in 4.0 mi NW 5.8 mph - N/A   Unknown
8:55 AM 55.4 °F 53.6 °F 94% 30.01 in 4.0 mi NW 3.5 mph - N/A   Unknown
9:15 AM 55.4 °F 53.6 °F 94% 30.01 in 4.0 mi WNW 3.5 mph - N/A   Unknown
9:35 AM 55.4 °F 53.6 °F 94% 30.02 in 3.0 mi NNW 3.5 mph - N/A   Unknown
9:55 AM 55.4 °F 53.6 °F 94% 30.01 in 4.0 mi Calm Calm - N/A   Unknown
10:15 AM 55.4 °F 53.6 °F 94% 30.01 in 3.0 mi North 4.6 mph - N/A   Unknown
10:35 AM 55.4 °F 53.6 °F 94% 30.02 in 4.0 mi NNE 4.6 mph - N/A   Unknown
11:15 AM 53.6 °F 53.6 °F 100% 30.03 in 0.2 mi North 6.9 mph - N/A   Unknown
11:35 AM 53.6 °F 51.8 °F 94% 30.02 in 0.2 mi North 9.2 mph - N/A   Unknown
11:55 AM 53.6 °F 51.8 °F 94% 30.02 in 1.8 mi North 6.9 mph - N/A   Unknown
12:15 PM 53.6 °F 51.8 °F 94% 30.01 in 2.0 mi NNE 5.8 mph - N/A   Unknown
12:35 PM 53.6 °F 51.8 °F 94% 29.99 in 0.8 mi NE 3.5 mph - N/A   Unknown
12:55 PM 53.6 °F 53.6 °F 100% 29.99 in 3.0 mi East 4.6 mph - N/A   Unknown
1:15 PM 53.6 °F 53.6 °F 100% 29.98 in 7.0 mi East 3.5 mph - N/A   Unknown
1:35 PM 55.4 °F 53.6 °F 94% 29.98 in 10.0 mi East 3.5 mph - N/A   Unknown
1:55 PM 55.4 °F 53.6 °F 94% 29.97 in 10.0 mi East 3.5 mph - N/A   Unknown
2:15 PM 55.4 °F 53.6 °F 94% 29.97 in 10.0 mi NNE 3.5 mph - N/A   Unknown
2:35 PM 53.6 °F 51.8 °F 94% 29.98 in 7.0 mi North 8.1 mph - N/A   Unknown
2:55 PM 53.6 °F 53.6 °F 100% 29.97 in 5.0 mi NNE 5.8 mph - N/A   Unknown
3:15 PM 53.6 °F 53.6 °F 100% 29.97 in 0.2 mi NNE 4.6 mph - N/A   Unknown
3:35 PM 53.6 °F 51.8 °F 94% 29.97 in 0.2 mi NE 4.6 mph - N/A   Unknown
4:15 PM 53.6 °F 51.8 °F 94% 29.97 in 2.5 mi NE 4.6 mph - N/A   Unknown
4:35 PM 53.6 °F 51.8 °F 94% 29.97 in 0.2 mi NE 4.6 mph - N/A   Unknown
4:55 PM 53.6 °F 51.8 °F 94% 29.96 in 1.8 mi ENE 3.5 mph - N/A   Unknown
5:15 PM 53.6 °F 51.8 °F 94% 29.98 in 1.5 mi NE 4.6 mph - N/A   Unknown
5:35 PM 53.6 °F 51.8 °F 94% 29.97 in 4.0 mi NE 3.5 mph - N/A   Unknown
5:55 PM 53.6 °F 51.8 °F 94% 29.98 in 2.5 mi NE 3.5 mph - N/A   Unknown
6:15 PM 53.6 °F 51.8 °F 94% 29.98 in 2.0 mi NE 3.5 mph - N/A   Unknown
6:35 PM 53.6 °F 51.8 °F 94% 29.98 in 2.0 mi NE 4.6 mph - N/A   Unknown
6:55 PM 53.6 °F 51.8 °F 94% 29.99 in 1.5 mi NE 3.5 mph - N/A   Unknown
7:15 PM 53.6 °F 51.8 °F 94% 29.99 in 2.0 mi Calm Calm - N/A   Unknown
7:35 PM 53.6 °F 51.8 °F 94% 29.99 in 1.8 mi Calm Calm - N/A   Unknown
7:55 PM 53.6 °F 51.8 °F 94% 29.99 in 2.5 mi Calm Calm - N/A   Unknown
8:15 PM 53.6 °F 51.8 °F 94% 29.99 in 2.5 mi Calm Calm - N/A   Unknown
8:35 PM 53.6 °F 51.8 °F 94% 29.98 in 3.0 mi Calm Calm - N/A   Unknown
8:55 PM 53.6 °F 51.8 °F 94% 29.98 in 4.0 mi Calm Calm - N/A   Unknown
9:15 PM 53.6 °F 51.8 °F 94% 29.98 in 7.0 mi Calm Calm - N/A   Unknown
9:35 PM 53.6 °F 53.6 °F 100% 29.98 in 7.0 mi Calm Calm - N/A   Unknown
9:55 PM 55.4 °F 53.6 °F 94% 29.97 in 10.0 mi Calm Calm - N/A   Unknown
10:15 PM 55.4 °F 55.4 °F 100% 29.97 in 10.0 mi South 3.5 mph - N/A   Unknown
10:35 PM 57.2 °F 55.4 °F 94% 29.97 in 10.0 mi Calm Calm - N/A   Unknown
10:55 PM 57.2 °F 55.4 °F 94% 29.95 in 4.0 mi East 3.5 mph - N/A   Unknown
11:15 PM 57.2 °F 55.4 °F 94% 29.96 in 1.0 mi Calm Calm - N/A   Unknown
11:35 PM 57.2 °F 55.4 °F 94% 29.96 in 4.0 mi Calm Calm - N/A   Unknown
11:55 PM 57.2 °F 55.4 °F 94% 29.95 in 5.0 mi Calm Calm - N/A   Unknown